| time (UTC) | temp C | wind direction | speed KPH | gust KPH | rain 1hr cm | rain 24hr cm | rain mn cm | humidity % | barometer mb |
| 20260906004044 | 28 | 0 | 0.0 | 0.0 | 0.00 | 0.00 | 0.00 | 78 | 1010.6 |
| 20260906003544 | 29 | 0 | 0.0 | 0.0 | 0.00 | 0.00 | 0.00 | 76 | 1010.6 |
| 20260906003108 | 30 | 0 | 0.0 | 0.0 | 0.00 | 0.00 | 0.00 | 72 | 1010.6 |
| 20260906002542 | 31 | 0 | 0.0 | 0.0 | 0.00 | 0.00 | 0.00 | 67 | 1010.6 |
| 20260906002043 | 31 | 0 | 0.0 | 0.0 | 0.00 | 0.00 | 0.00 | 65 | 1010.7 |
| 20260906001606 | 31 | 0 | 0.0 | 0.0 | 0.00 | 0.00 | 0.00 | 66 | 1010.6 |
| 20260906001045 | 30 | 0 | 0.0 | 0.0 | 0.00 | 0.00 | 0.00 | 71 | 1010.6 |
| 20260906000544 | 31 | 0 | 0.0 | 0.0 | 0.00 | 0.00 | 0.00 | 70 | 1010.5 |
| 20260906000111 | 31 | 0 | 0.0 | 1.6 | 0.00 | 0.00 | 0.00 | 67 | 1010.4 |
| 20260905235544 | 32 | 0 | 0.0 | 3.2 | 0.00 | 0.00 | 0.00 | 60 | 1010.5 |
| 20260905235045 | 32 | 0 | 0.0 | 3.2 | 0.00 | 0.00 | 0.00 | 60 | 1010.5 |
| 20260905234606 | 32 | 0 | 0.0 | 3.2 | 0.00 | 0.00 | 0.00 | 59 | 1010.4 |
| 20260905234044 | 33 | 234 | 0.0 | 4.8 | 0.00 | 0.00 | 0.00 | 58 | 1010.5 |
| 20260905233542 | 33 | 0 | 0.0 | 4.8 | 0.00 | 0.00 | 0.00 | 58 | 1010.6 |
| 20260905233117 | 33 | 272 | 1.6 | 4.8 | 0.00 | 0.00 | 0.00 | 57 | 1010.6 |
| 20260905232543 | 33 | 221 | 1.6 | 6.4 | 0.00 | 0.00 | 0.00 | 56 | 1010.6 |
| 20260905232043 | 33 | 218 | 3.2 | 6.4 | 0.00 | 0.00 | 0.00 | 56 | 1010.6 |
| 20260905231608 | 33 | 223 | 1.6 | 4.8 | 0.00 | 0.00 | 0.00 | 55 | 1010.6 |
| 20260905231046 | 34 | 238 | 1.6 | 3.2 | 0.00 | 0.00 | 0.00 | 54 | 1010.5 |
| 20260905230544 | 34 | 225 | 0.0 | 4.8 | 0.00 | 0.00 | 0.00 | 53 | 1010.5 |
| 20260905230108 | 34 | 257 | 0.0 | 6.4 | 0.00 | 0.00 | 0.00 | 52 | 1010.5 |
| 20260905225544 | 35 | 267 | 1.6 | 6.4 | 0.00 | 0.00 | 0.00 | 51 | 1010.5 |
| 20260905225044 | 35 | 256 | 3.2 | 6.4 | 0.00 | 0.00 | 0.00 | 51 | 1010.5 |
| 20260905224607 | 35 | 235 | 1.6 | 8.0 | 0.00 | 0.00 | 0.00 | 51 | 1010.4 |
| 20260905224044 | 35 | 235 | 0.0 | 8.0 | 0.00 | 0.00 | 0.00 | 51 | 1010.6 |
| 20260905223543 | 35 | 216 | 1.6 | 8.0 | 0.00 | 0.00 | 0.00 | 50 | 1010.4 |
| 20260905223108 | 35 | 218 | 4.8 | 8.0 | 0.00 | 0.00 | 0.00 | 48 | 1010.5 |
| 20260905222544 | 35 | 211 | 3.2 | 8.0 | 0.00 | 0.00 | 0.00 | 48 | 1010.4 |
| 20260905222043 | 35 | 239 | 3.2 | 9.7 | 0.00 | 0.00 | 0.00 | 48 | 1010.5 |
| 20260905221602 | 35 | 286 | 3.2 | 9.7 | 0.00 | 0.00 | 0.00 | 49 | 1010.4 |
| 20260905221043 | 35 | 263 | 3.2 | 11.3 | 0.00 | 0.00 | 0.00 | 49 | 1010.6 |
| 20260905220544 | 36 | 234 | 6.4 | 11.3 | 0.00 | 0.00 | 0.00 | 47 | 1010.4 |
| 20260905220108 | 36 | 237 | 4.8 | 11.3 | 0.00 | 0.00 | 0.00 | 49 | 1010.6 |
| 20260905215544 | 36 | 325 | 3.2 | 9.7 | 0.00 | 0.00 | 0.00 | 49 | 1010.5 |
| 20260905215043 | 36 | 203 | 6.4 | 11.3 | 0.00 | 0.00 | 0.00 | 48 | 1010.5 |
| 20260905214605 | 36 | 250 | 4.8 | 11.3 | 0.00 | 0.00 | 0.00 | 47 | 1010.6 |
| 20260905214043 | 36 | 251 | 4.8 | 11.3 | 0.00 | 0.00 | 0.00 | 47 | 1010.5 |
| 20260905213544 | 36 | 0 | 1.6 | 9.7 | 0.00 | 0.00 | 0.00 | 45 | 1010.6 |
| 20260905213113 | 36 | 279 | 4.8 | 9.7 | 0.00 | 0.00 | 0.00 | 46 | 1010.6 |
| 20260905212544 | 36 | 33 | 1.6 | 9.7 | 0.00 | 0.00 | 0.00 | 46 | 1010.7 |
| 20260905212043 | 36 | 329 | 4.8 | 12.9 | 0.00 | 0.00 | 0.00 | 46 | 1010.7 |
| 20260905211613 | 36 | 265 | 4.8 | 12.9 | 0.00 | 0.00 | 0.00 | 48 | 1010.8 |
| 20260905211045 | 36 | 296 | 1.6 | 9.7 | 0.00 | 0.00 | 0.00 | 48 | 1010.8 |
| 20260905210544 | 36 | 286 | 1.6 | 14.5 | 0.00 | 0.00 | 0.00 | 46 | 1010.8 |
| 20260905210114 | 36 | 246 | 6.4 | 14.5 | 0.00 | 0.00 | 0.00 | 48 | 1010.9 |
| 20260905205543 | 36 | 252 | 4.8 | 11.3 | 0.00 | 0.00 | 0.00 | 48 | 1010.9 |
| 20260905205044 | 36 | 221 | 4.8 | 9.7 | 0.00 | 0.00 | 0.00 | 47 | 1010.9 |
| 20260905204606 | 36 | 302 | 3.2 | 9.7 | 0.00 | 0.00 | 0.00 | 48 | 1011.0 |
| 20260905204044 | 36 | 238 | 3.2 | 12.9 | 0.00 | 0.00 | 0.00 | 48 | 1011.0 |
| 20260905203544 | 36 | 0 | 4.8 | 12.9 | 0.00 | 0.00 | 0.00 | 49 | 1011.1 |
| 20260905203107 | 36 | 232 | 3.2 | 16.1 | 0.00 | 0.00 | 0.00 | 51 | 1011.1 |
| 20260905202545 | 35 | 294 | 8.0 | 16.1 | 0.00 | 0.00 | 0.00 | 50 | 1011.3 |
| 20260905202042 | 35 | 0 | 1.6 | 6.4 | 0.00 | 0.00 | 0.00 | 48 | 1011.5 |
| 20260905201600 | 35 | 279 | 1.6 | 12.9 | 0.00 | 0.00 | 0.00 | 50 | 1011.5 |
| 20260905201043 | 35 | 340 | 3.2 | 12.9 | 0.00 | 0.00 | 0.00 | 50 | 1011.6 |
| 20260905200547 | 36 | 252 | 4.8 | 12.9 | 0.00 | 0.00 | 0.00 | 47 | 1011.7 |
| 20260905195543 | 36 | 317 | 1.6 | 6.4 | 0.00 | 0.00 | 0.00 | 51 | 1011.8 |
| 20260905195044 | 36 | 186 | 1.6 | 6.4 | 0.00 | 0.00 | 0.00 | 47 | 1011.7 |
| 20260905194607 | 35 | 257 | 1.6 | 6.4 | 0.00 | 0.00 | 0.00 | 48 | 1011.7 |
| 20260905194044 | 35 | 0 | 0.0 | 6.4 | 0.00 | 0.00 | 0.00 | 51 | 1011.8 |
| 20260905193543 | 35 | 282 | 1.6 | 6.4 | 0.00 | 0.00 | 0.00 | 50 | 1011.9 |
| 20260905193100 | 35 | 254 | 3.2 | 12.9 | 0.00 | 0.00 | 0.00 | 49 | 1012.0 |
| 20260905192543 | 35 | 0 | 4.8 | 12.9 | 0.00 | 0.00 | 0.00 | 49 | 1012.0 |
| 20260905192042 | 35 | 279 | 3.2 | 11.3 | 0.00 | 0.00 | 0.00 | 54 | 1012.1 |
| 20260905191559 | 35 | 269 | 4.8 | 9.7 | 0.00 | 0.00 | 0.00 | 50 | 1012.1 |
| 20260905191043 | 35 | 277 | 1.6 | 11.3 | 0.00 | 0.00 | 0.00 | 51 | 1012.2 |
| 20260905190546 | 35 | 194 | 3.2 | 11.3 | 0.00 | 0.00 | 0.00 | 52 | 1012.2 |
| 20260905190104 | 35 | 296 | 1.6 | 8.0 | 0.00 | 0.00 | 0.00 | 52 | 1012.2 |
| 20260905185544 | 35 | 17 | 3.2 | 6.4 | 0.00 | 0.00 | 0.00 | 51 | 1012.3 |
| 20260905185042 | 35 | 19 | 1.6 | 3.2 | 0.00 | 0.00 | 0.00 | 51 | 1012.3 |
| 20260905184611 | 35 | 0 | 0.0 | 3.2 | 0.00 | 0.00 | 0.00 | 50 | 1012.4 |
| 20260905184041 | 35 | 0 | 0.0 | 3.2 | 0.00 | 0.00 | 0.00 | 50 | 1012.5 |
| 20260905183544 | 35 | 279 | 0.0 | 6.4 | 0.00 | 0.00 | 0.00 | 50 | 1012.5 |
| 20260905183119 | 34 | 312 | 3.2 | 14.5 | 0.00 | 0.00 | 0.00 | 58 | 1012.7 |
| 20260905182543 | 34 | 314 | 4.8 | 14.5 | 0.00 | 0.00 | 0.00 | 52 | 1012.8 |
| 20260905182044 | 35 | 301 | 8.0 | 14.5 | 0.00 | 0.00 | 0.00 | 52 | 1012.9 |
| 20260905181606 | 34 | 321 | 3.2 | 9.7 | 0.00 | 0.00 | 0.00 | 52 | 1013.0 |
| 20260905181043 | 34 | 295 | 4.8 | 14.5 | 0.00 | 0.00 | 0.00 | 56 | 1013.0 |
| 20260905180543 | 35 | 190 | 6.4 | 14.5 | 0.00 | 0.00 | 0.00 | 51 | 1013.3 |
| 20260905180108 | 35 | 292 | 3.2 | 8.0 | 0.00 | 0.00 | 0.00 | 54 | 1013.3 |
| 20260905175547 | 35 | 189 | 1.6 | 6.4 | 0.00 | 0.00 | 0.00 | 54 | 1013.3 |
| 20260905175046 | 35 | 0 | 0.0 | 6.4 | 0.00 | 0.00 | 0.00 | 51 | 1013.4 |
| 20260905174602 | 34 | 0 | 1.6 | 6.4 | 0.00 | 0.00 | 0.00 | 54 | 1013.4 |
| 20260905174045 | 34 | 0 | 1.6 | 12.9 | 0.00 | 0.00 | 0.00 | 53 | 1013.4 |
| 20260905173544 | 35 | 71 | 4.8 | 12.9 | 0.00 | 0.00 | 0.00 | 50 | 1013.4 |
| 20260905173059 | 35 | 94 | 3.2 | 8.0 | 0.00 | 0.00 | 0.00 | 51 | 1013.5 |
| 20260905172544 | 35 | 64 | 3.2 | 6.4 | 0.00 | 0.00 | 0.00 | 51 | 1013.5 |
| 20260905172043 | 35 | 313 | 1.6 | 8.0 | 0.00 | 0.00 | 0.00 | 50 | 1013.6 |
| 20260905171559 | 34 | 0 | 3.2 | 9.7 | 0.00 | 0.00 | 0.00 | 49 | 1013.6 |
| 20260905171044 | 35 | 312 | 4.8 | 9.7 | 0.00 | 0.00 | 0.00 | 53 | 1013.6 |
| 20260905170544 | 34 | 324 | 1.6 | 12.9 | 0.00 | 0.00 | 0.00 | 53 | 1013.7 |
| 20260905170104 | 34 | 49 | 4.8 | 12.9 | 0.00 | 0.00 | 0.00 | 55 | 1013.8 |
| 20260905165542 | 34 | 269 | 3.2 | 9.7 | 0.00 | 0.00 | 0.00 | 55 | 1013.7 |
| 20260905165044 | 34 | 218 | 1.6 | 8.0 | 0.00 | 0.00 | 0.00 | 54 | 1013.9 |
| 20260905164609 | 34 | 342 | 4.8 | 8.0 | 0.00 | 0.00 | 0.00 | 54 | 1013.9 |
| 20260905164043 | 33 | 63 | 3.2 | 11.3 | 0.00 | 0.00 | 0.00 | 55 | 1014.0 |
| 20260905163548 | 33 | 317 | 4.8 | 11.3 | 0.00 | 0.00 | 0.00 | 54 | 1014.0 |
| 20260905163107 | 33 | 283 | 3.2 | 11.3 | 0.00 | 0.00 | 0.00 | 55 | 1014.0 |
| 20260905162545 | 33 | 21 | 1.6 | 6.4 | 0.00 | 0.00 | 0.00 | 55 | 1014.1 |
| 20260905162044 | 33 | 349 | 1.6 | 6.4 | 0.00 | 0.00 | 0.00 | 57 | 1014.1 |
| 20260905161600 | 33 | 29 | 1.6 | 6.4 | 0.00 | 0.00 | 0.00 | 56 | 1014.2 |
| 20260905161044 | 33 | 22 | 3.2 | 11.3 | 0.00 | 0.00 | 0.00 | 57 | 1014.1 |
| 20260905160544 | 33 | 310 | 4.8 | 11.3 | 0.00 | 0.00 | 0.00 | 62 | 1014.2 |
| 20260905160105 | 33 | 34 | 1.6 | 11.3 | 0.00 | 0.00 | 0.00 | 59 | 1014.2 |
| 20260905155541 | 33 | 296 | 1.6 | 11.3 | 0.00 | 0.00 | 0.00 | 61 | 1014.1 |
| 20260905155043 | 33 | 306 | 4.8 | 14.5 | 0.00 | 0.00 | 0.00 | 61 | 1014.2 |
| 20260905154606 | 33 | 298 | 3.2 | 14.5 | 0.00 | 0.00 | 0.00 | 61 | 1014.2 |
| 20260905154042 | 33 | 360 | 8.0 | 14.5 | 0.00 | 0.00 | 0.00 | 61 | 1014.2 |
| 20260905153544 | 32 | 305 | 3.2 | 9.7 | 0.00 | 0.00 | 0.00 | 60 | 1014.3 |
| 20260905153110 | 32 | 301 | 3.2 | 11.3 | 0.00 | 0.00 | 0.00 | 63 | 1014.4 |
| 20260905152543 | 32 | 319 | 4.8 | 11.3 | 0.00 | 0.00 | 0.00 | 62 | 1014.5 |
| 20260905152044 | 32 | 329 | 6.4 | 11.3 | 0.00 | 0.00 | 0.00 | 61 | 1014.4 |
| 20260905151611 | 32 | 313 | 3.2 | 6.4 | 0.00 | 0.00 | 0.00 | 62 | 1014.4 |
| 20260905151044 | 32 | 9 | 1.6 | 9.7 | 0.00 | 0.00 | 0.00 | 67 | 1014.5 |
| 20260905150543 | 31 | 281 | 3.2 | 9.7 | 0.00 | 0.00 | 0.00 | 64 | 1014.5 |
| 20260905150100 | 31 | 307 | 4.8 | 9.7 | 0.00 | 0.00 | 0.00 | 66 | 1014.5 |
| 20260905145544 | 31 | 269 | 4.8 | 8.0 | 0.00 | 0.00 | 0.00 | 65 | 1014.5 |
| 20260905145042 | 31 | 299 | 4.8 | 8.0 | 0.00 | 0.00 | 0.00 | 68 | 1014.5 |
| 20260905144558 | 31 | 297 | 4.8 | 8.0 | 0.00 | 0.00 | 0.00 | 65 | 1014.5 |
| 20260905144043 | 31 | 345 | 6.4 | 8.0 | 0.00 | 0.00 | 0.00 | 66 | 1014.5 |
| 20260905143544 | 31 | 314 | 4.8 | 8.0 | 0.00 | 0.00 | 0.00 | 66 | 1014.5 |
| 20260905143102 | 31 | 291 | 1.6 | 8.0 | 0.00 | 0.00 | 0.00 | 70 | 1014.5 |
| 20260905142542 | 30 | 337 | 3.2 | 6.4 | 0.00 | 0.00 | 0.00 | 68 | 1014.6 |
| 20260905142044 | 30 | 325 | 0.0 | 4.8 | 0.00 | 0.00 | 0.00 | 72 | 1014.5 |
| 20260905141607 | 30 | 320 | 1.6 | 6.4 | 0.00 | 0.00 | 0.00 | 73 | 1014.5 |
| 20260905141047 | 30 | 329 | 1.6 | 6.4 | 0.00 | 0.00 | 0.00 | 73 | 1014.5 |
| 20260905140542 | 30 | 293 | 1.6 | 6.4 | 0.00 | 0.00 | 0.00 | 74 | 1014.5 |
| 20260905140109 | 29 | 306 | 3.2 | 6.4 | 0.00 | 0.00 | 0.00 | 73 | 1014.5 |
| 20260905135542 | 29 | 289 | 3.2 | 6.4 | 0.00 | 0.00 | 0.00 | 76 | 1014.6 |
| 20260905135042 | 28 | 287 | 0.0 | 4.8 | 0.00 | 0.00 | 0.00 | 78 | 1014.5 |
| 20260905134604 | 28 | 288 | 0.0 | 4.8 | 0.00 | 0.00 | 0.00 | 78 | 1014.6 |
| 20260905134043 | 28 | 0 | 0.0 | 0.0 | 0.00 | 0.00 | 0.00 | 82 | 1014.6 |
| 20260905133543 | 27 | 0 | 0.0 | 0.0 | 0.00 | 0.00 | 0.00 | 84 | 1014.5 |
| 20260905133100 | 27 | 0 | 0.0 | 0.0 | 0.00 | 0.00 | 0.00 | 84 | 1014.6 |
| 20260905132542 | 26 | 0 | 0.0 | 0.0 | 0.00 | 0.00 | 0.00 | 86 | 1014.6 |
| 20260905132045 | 26 | 0 | 0.0 | 0.0 | 0.00 | 0.00 | 0.00 | 85 | 1014.5 |
| 20260905131617 | 26 | 0 | 0.0 | 0.0 | 0.00 | 0.00 | 0.00 | 86 | 1014.5 |
| 20260905131042 | 26 | 0 | 0.0 | 3.2 | 0.00 | 0.00 | 0.00 | 87 | 1014.5 |
| 20260905130545 | 25 | 0 | 0.0 | 3.2 | 0.00 | 0.00 | 0.00 | 88 | 1014.4 |
| 20260905130058 | 25 | 0 | 0.0 | 3.2 | 0.00 | 0.00 | 0.00 | 89 | 1014.4 |
| 20260905125542 | 25 | 0 | 0.0 | 3.2 | 0.00 | 0.00 | 0.00 | 90 | 1014.5 |
| 20260905125042 | 24 | 0 | 0.0 | 0.0 | 0.00 | 0.00 | 0.00 | 91 | 1014.5 |
| 20260905124608 | 23 | 0 | 0.0 | 0.0 | 0.00 | 0.00 | 0.00 | 91 | 1014.5 |
| 20260905124042 | 23 | 0 | 0.0 | 0.0 | 0.00 | 0.00 | 0.00 | 91 | 1014.4 |
| 20260905123539 | 23 | 0 | 0.0 | 0.0 | 0.00 | 0.00 | 0.00 | 91 | 1014.5 |
| 20260905123110 | 23 | 0 | 0.0 | 0.0 | 0.00 | 0.00 | 0.00 | 91 | 1014.4 |
| 20260905122540 | 22 | 0 | 0.0 | 1.6 | 0.00 | 0.00 | 0.00 | 92 | 1014.4 |
| 20260905122039 | 22 | 0 | 0.0 | 1.6 | 0.00 | 0.00 | 0.00 | 92 | 1014.4 |
| 20260905121602 | 22 | 0 | 0.0 | 0.0 | 0.00 | 0.00 | 0.00 | 92 | 1014.3 |
| 20260905121040 | 22 | 0 | 0.0 | 0.0 | 0.00 | 0.00 | 0.00 | 92 | 1014.3 |
| 20260905120542 | 22 | 0 | 0.0 | 0.0 | 0.00 | 0.00 | 0.00 | 92 | 1014.3 |
| 20260905120059 | 22 | 0 | 0.0 | 0.0 | 0.00 | 0.00 | 0.00 | 92 | 1014.2 |
| 20260905115542 | 22 | 0 | 0.0 | 0.0 | 0.00 | 0.00 | 0.00 | 92 | 1014.2 |
| 20260905115042 | 22 | 0 | 0.0 | 0.0 | 0.00 | 0.00 | 0.00 | 92 | 1014.1 |
| 20260905114557 | 22 | 0 | 0.0 | 0.0 | 0.00 | 0.00 | 0.00 | 92 | 1014.1 |
| 20260905114046 | 22 | 0 | 0.0 | 0.0 | 0.00 | 0.00 | 0.00 | 92 | 1014.0 |
| 20260905113540 | 22 | 0 | 0.0 | 0.0 | 0.00 | 0.00 | 0.00 | 92 | 1014.0 |
| 20260905113102 | 22 | 0 | 0.0 | 0.0 | 0.00 | 0.00 | 0.00 | 92 | 1014.0 |
| 20260905112540 | 22 | 0 | 0.0 | 0.0 | 0.00 | 0.00 | 0.00 | 92 | 1013.9 |
| 20260905112042 | 22 | 0 | 0.0 | 0.0 | 0.00 | 0.00 | 0.00 | 92 | 1013.9 |
| 20260905111600 | 22 | 0 | 0.0 | 0.0 | 0.00 | 0.00 | 0.00 | 92 | 1013.8 |
| 20260905111042 | 22 | 0 | 0.0 | 0.0 | 0.00 | 0.00 | 0.00 | 92 | 1013.8 |
| 20260905110544 | 22 | 0 | 0.0 | 0.0 | 0.00 | 0.00 | 0.00 | 92 | 1013.7 |
| 20260905110101 | 22 | 0 | 0.0 | 0.0 | 0.00 | 0.00 | 0.00 | 92 | 1013.8 |
| 20260905105544 | 22 | 0 | 0.0 | 0.0 | 0.00 | 0.00 | 0.00 | 91 | 1013.6 |
| 20260905105044 | 22 | 0 | 0.0 | 0.0 | 0.00 | 0.00 | 0.00 | 91 | 1013.6 |
| 20260905104606 | 22 | 0 | 0.0 | 0.0 | 0.00 | 0.00 | 0.00 | 91 | 1013.7 |
| 20260905104044 | 22 | 0 | 0.0 | 0.0 | 0.00 | 0.00 | 0.00 | 90 | 1013.6 |
| 20260905103547 | 22 | 0 | 0.0 | 0.0 | 0.00 | 0.00 | 0.00 | 91 | 1013.6 |
| 20260905103111 | 22 | 0 | 0.0 | 0.0 | 0.00 | 0.00 | 0.00 | 91 | 1013.6 |
| 20260905102543 | 22 | 0 | 0.0 | 0.0 | 0.00 | 0.00 | 0.00 | 91 | 1013.5 |
| 20260905102044 | 22 | 0 | 0.0 | 0.0 | 0.00 | 0.00 | 0.00 | 91 | 1013.4 |
| 20260905101607 | 22 | 0 | 0.0 | 0.0 | 0.00 | 0.00 | 0.00 | 91 | 1013.5 |
| 20260905101043 | 22 | 0 | 0.0 | 0.0 | 0.00 | 0.00 | 0.00 | 91 | 1013.4 |
| 20260905100545 | 22 | 0 | 0.0 | 0.0 | 0.00 | 0.00 | 0.00 | 91 | 1013.5 |
| 20260905100124 | 22 | 0 | 0.0 | 0.0 | 0.00 | 0.00 | 0.00 | 91 | 1013.4 |
| 20260905095543 | 22 | 0 | 0.0 | 0.0 | 0.00 | 0.00 | 0.00 | 91 | 1013.4 |
| 20260905095042 | 22 | 0 | 0.0 | 0.0 | 0.00 | 0.00 | 0.00 | 91 | 1013.4 |
| 20260905094558 | 22 | 0 | 0.0 | 0.0 | 0.00 | 0.00 | 0.00 | 91 | 1013.3 |
| 20260905094045 | 22 | 0 | 0.0 | 0.0 | 0.00 | 0.00 | 0.00 | 91 | 1013.4 |
| 20260905093547 | 22 | 0 | 0.0 | 0.0 | 0.00 | 0.00 | 0.00 | 91 | 1013.3 |
| 20260905093106 | 22 | 0 | 0.0 | 0.0 | 0.00 | 0.00 | 0.00 | 91 | 1013.2 |
| 20260905092544 | 22 | 0 | 0.0 | 0.0 | 0.00 | 0.00 | 0.00 | 91 | 1013.1 |
| 20260905092044 | 22 | 0 | 0.0 | 0.0 | 0.00 | 0.00 | 0.00 | 91 | 1013.1 |
| 20260905091605 | 22 | 0 | 0.0 | 0.0 | 0.00 | 0.00 | 0.00 | 91 | 1013.1 |
| 20260905091042 | 22 | 0 | 0.0 | 0.0 | 0.00 | 0.00 | 0.00 | 90 | 1013.0 |
| 20260905090544 | 22 | 0 | 0.0 | 0.0 | 0.00 | 0.00 | 0.00 | 90 | 1013.1 |
| 20260905090135 | 22 | 0 | 0.0 | 0.0 | 0.00 | 0.00 | 0.00 | 90 | 1013.1 |
| 20260905085544 | 22 | 0 | 0.0 | 0.0 | 0.00 | 0.00 | 0.00 | 90 | 1013.1 |
| 20260905085046 | 22 | 0 | 0.0 | 0.0 | 0.00 | 0.00 | 0.00 | 90 | 1013.1 |
| 20260905084603 | 22 | 0 | 0.0 | 0.0 | 0.00 | 0.00 | 0.00 | 90 | 1013.2 |
| 20260905084044 | 22 | 0 | 0.0 | 0.0 | 0.00 | 0.00 | 0.00 | 90 | 1013.2 |
| 20260905083544 | 22 | 0 | 0.0 | 0.0 | 0.00 | 0.00 | 0.00 | 91 | 1013.3 |
| 20260905083110 | 22 | 0 | 0.0 | 0.0 | 0.00 | 0.00 | 0.00 | 91 | 1013.1 |
| 20260905082544 | 22 | 0 | 0.0 | 0.0 | 0.00 | 0.00 | 0.00 | 91 | 1013.1 |
| 20260905082044 | 22 | 0 | 0.0 | 0.0 | 0.00 | 0.00 | 0.00 | 90 | 1013.2 |
| 20260905081601 | 22 | 0 | 0.0 | 0.0 | 0.00 | 0.00 | 0.00 | 90 | 1013.3 |
| 20260905081043 | 22 | 0 | 0.0 | 0.0 | 0.00 | 0.00 | 0.00 | 90 | 1013.4 |
| 20260905080546 | 22 | 0 | 0.0 | 0.0 | 0.00 | 0.00 | 0.00 | 90 | 1013.4 |
| 20260905075543 | 22 | 0 | 0.0 | 0.0 | 0.00 | 0.00 | 0.00 | 91 | 1013.3 |
| 20260905075044 | 22 | 0 | 0.0 | 0.0 | 0.00 | 0.00 | 0.00 | 91 | 1013.3 |
| 20260905074608 | 22 | 0 | 0.0 | 0.0 | 0.00 | 0.00 | 0.00 | 90 | 1013.2 |
| 20260905074042 | 22 | 0 | 0.0 | 0.0 | 0.00 | 0.00 | 0.00 | 90 | 1013.3 |
| 20260905073546 | 22 | 0 | 0.0 | 0.0 | 0.00 | 0.00 | 0.00 | 90 | 1013.2 |
| 20260905073108 | 22 | 0 | 0.0 | 0.0 | 0.00 | 0.00 | 0.00 | 90 | 1013.3 |
| 20260905072544 | 22 | 0 | 0.0 | 0.0 | 0.00 | 0.00 | 0.00 | 89 | 1013.2 |
| 20260905072046 | 22 | 0 | 0.0 | 0.0 | 0.00 | 0.00 | 0.00 | 89 | 1013.4 |
| 20260905071603 | 22 | 0 | 0.0 | 0.0 | 0.00 | 0.00 | 0.00 | 90 | 1013.4 |
| 20260905071047 | 22 | 0 | 0.0 | 0.0 | 0.00 | 0.00 | 0.00 | 89 | 1013.4 |
| 20260905070542 | 22 | 0 | 0.0 | 0.0 | 0.00 | 0.00 | 0.00 | 87 | 1013.5 |
| 20260905070110 | 23 | 0 | 0.0 | 0.0 | 0.00 | 0.00 | 0.00 | 86 | 1013.5 |
| 20260905065544 | 23 | 0 | 0.0 | 0.0 | 0.00 | 0.00 | 0.00 | 87 | 1013.4 |
| 20260905065042 | 23 | 0 | 0.0 | 0.0 | 0.00 | 0.00 | 0.00 | 87 | 1013.5 |
| 20260905064601 | 23 | 0 | 0.0 | 0.0 | 0.00 | 0.00 | 0.00 | 87 | 1013.5 |
| 20260905064043 | 23 | 0 | 0.0 | 0.0 | 0.00 | 0.00 | 0.00 | 87 | 1013.6 |
| 20260905063546 | 23 | 0 | 0.0 | 0.0 | 0.00 | 0.00 | 0.00 | 88 | 1013.6 |
| 20260905063106 | 23 | 0 | 0.0 | 0.0 | 0.00 | 0.00 | 0.00 | 88 | 1013.6 |
| 20260905062543 | 23 | 0 | 0.0 | 0.0 | 0.00 | 0.00 | 0.00 | 89 | 1013.6 |
| 20260905062044 | 23 | 0 | 0.0 | 0.0 | 0.00 | 0.00 | 0.00 | 88 | 1013.6 |
| 20260905061605 | 23 | 0 | 0.0 | 0.0 | 0.00 | 0.00 | 0.00 | 88 | 1013.5 |
| 20260905061045 | 23 | 0 | 0.0 | 0.0 | 0.00 | 0.00 | 0.00 | 88 | 1013.5 |
| 20260905060542 | 23 | 0 | 0.0 | 0.0 | 0.00 | 0.00 | 0.00 | 88 | 1013.5 |
| 20260905060104 | 23 | 0 | 0.0 | 0.0 | 0.00 | 0.00 | 0.00 | 87 | 1013.4 |
| 20260905055547 | 23 | 0 | 0.0 | 0.0 | 0.00 | 0.00 | 0.00 | 85 | 1013.5 |
| 20260905055044 | 23 | 0 | 0.0 | 0.0 | 0.00 | 0.00 | 0.00 | 84 | 1013.6 |
| 20260905054606 | 25 | 0 | 0.0 | 0.0 | 0.00 | 0.00 | 0.00 | 83 | 1013.5 |
| 20260905054044 | 24 | 0 | 0.0 | 0.0 | 0.00 | 0.00 | 0.00 | 83 | 1013.5 |
| 20260905053544 | 24 | 0 | 0.0 | 0.0 | 0.00 | 0.00 | 0.00 | 83 | 1013.5 |
| 20260905053100 | 24 | 0 | 0.0 | 0.0 | 0.00 | 0.00 | 0.00 | 83 | 1013.6 |
| 20260905052542 | 25 | 0 | 0.0 | 0.0 | 0.00 | 0.00 | 0.00 | 82 | 1013.6 |
| 20260905052044 | 25 | 0 | 0.0 | 0.0 | 0.00 | 0.00 | 0.00 | 82 | 1013.6 |
| 20260905051606 | 25 | 0 | 0.0 | 0.0 | 0.00 | 0.00 | 0.00 | 81 | 1013.5 |
| 20260905051043 | 25 | 0 | 0.0 | 0.0 | 0.00 | 0.00 | 0.00 | 81 | 1013.5 |
| 20260905050544 | 25 | 0 | 0.0 | 0.0 | 0.00 | 0.00 | 0.00 | 82 | 1013.5 |
| 20260905050109 | 25 | 0 | 0.0 | 0.0 | 0.00 | 0.00 | 0.00 | 82 | 1013.5 |
| 20260905045542 | 25 | 0 | 0.0 | 0.0 | 0.00 | 0.00 | 0.00 | 82 | 1013.6 |
| 20260905045042 | 25 | 0 | 0.0 | 0.0 | 0.00 | 0.00 | 0.00 | 82 | 1013.5 |
| 20260905044603 | 25 | 0 | 0.0 | 0.0 | 0.00 | 0.00 | 0.00 | 83 | 1013.6 |
| 20260905044042 | 25 | 0 | 0.0 | 0.0 | 0.00 | 0.00 | 0.00 | 83 | 1013.5 |
| 20260905043545 | 25 | 0 | 0.0 | 0.0 | 0.00 | 0.00 | 0.00 | 83 | 1013.6 |
| 20260905043057 | 25 | 0 | 0.0 | 0.0 | 0.00 | 0.00 | 0.00 | 83 | 1013.6 |
| 20260905042542 | 25 | 0 | 0.0 | 0.0 | 0.00 | 0.00 | 0.00 | 84 | 1013.8 |
| 20260905042042 | 25 | 0 | 0.0 | 0.0 | 0.00 | 0.00 | 0.00 | 84 | 1013.9 |
| 20260905041559 | 25 | 0 | 0.0 | 0.0 | 0.00 | 0.00 | 0.00 | 83 | 1013.9 |
| 20260905041042 | 25 | 0 | 0.0 | 0.0 | 0.00 | 0.00 | 0.00 | 84 | 1013.9 |
| 20260905040540 | 25 | 0 | 0.0 | 0.0 | 0.00 | 0.00 | 0.00 | 85 | 1013.9 |
| 20260905040106 | 24 | 0 | 0.0 | 4.8 | 0.00 | 0.00 | 0.00 | 87 | 1013.9 |
| 20260905035542 | 23 | 0 | 0.0 | 4.8 | 0.00 | 0.00 | 0.00 | 88 | 1014.0 |
| 20260905035039 | 24 | 158 | 1.6 | 3.2 | 0.00 | 0.00 | 0.00 | 85 | 1014.0 |
| 20260905034602 | 24 | 0 | 0.0 | 0.0 | 0.00 | 0.00 | 0.00 | 86 | 1014.1 |
| 20260905034040 | 25 | 0 | 0.0 | 0.0 | 0.00 | 0.00 | 0.00 | 85 | 1014.1 |
| 20260905033543 | 25 | 0 | 0.0 | 0.0 | 0.00 | 0.00 | 0.00 | 86 | 1014.2 |
| 20260905033103 | 24 | 0 | 0.0 | 3.2 | 0.00 | 0.00 | 0.00 | 86 | 1014.3 |
| 20260905032542 | 25 | 0 | 0.0 | 3.2 | 0.00 | 0.00 | 0.00 | 85 | 1014.3 |
| 20260905032042 | 25 | 150 | 0.0 | 6.4 | 0.00 | 0.00 | 0.00 | 84 | 1014.4 |
| 20260905031609 | 25 | 0 | 3.2 | 6.4 | 0.00 | 0.00 | 0.00 | 82 | 1014.3 |
| 20260905031042 | 26 | 0 | 0.0 | 0.0 | 0.00 | 0.00 | 0.00 | 80 | 1014.3 |
| 20260905030542 | 26 | 0 | 0.0 | 0.0 | 0.00 | 0.00 | 0.00 | 81 | 1014.4 |
| 20260905030104 | 26 | 0 | 0.0 | 0.0 | 0.00 | 0.00 | 0.00 | 81 | 1014.3 |
| 20260905025541 | 26 | 0 | 0.0 | 0.0 | 0.00 | 0.00 | 0.00 | 83 | 1014.3 |
| 20260905025041 | 25 | 0 | 0.0 | 0.0 | 0.00 | 0.00 | 0.00 | 84 | 1014.4 |
| 20260905024558 | 25 | 0 | 0.0 | 0.0 | 0.00 | 0.00 | 0.00 | 85 | 1014.3 |
| 20260905024042 | 25 | 0 | 0.0 | 0.0 | 0.00 | 0.00 | 0.00 | 86 | 1014.1 |
| 20260905023544 | 25 | 0 | 0.0 | 0.0 | 0.00 | 0.00 | 0.00 | 85 | 1014.2 |
| 20260905023057 | 25 | 0 | 0.0 | 0.0 | 0.00 | 0.00 | 0.00 | 82 | 1014.2 |
| 20260905022539 | 26 | 0 | 0.0 | 0.0 | 0.00 | 0.00 | 0.00 | 80 | 1014.2 |
| 20260905022042 | 27 | 0 | 0.0 | 0.0 | 0.00 | 0.00 | 0.00 | 77 | 1014.2 |
| 20260905021600 | 27 | 0 | 0.0 | 0.0 | 0.00 | 0.00 | 0.00 | 76 | 1014.2 |
| 20260905021038 | 27 | 0 | 0.0 | 0.0 | 0.00 | 0.00 | 0.00 | 76 | 1014.1 |
| 20260905020542 | 27 | 0 | 0.0 | 0.0 | 0.00 | 0.00 | 0.00 | 76 | 1014.2 |
| 20260905020100 | 27 | 0 | 0.0 | 0.0 | 0.00 | 0.00 | 0.00 | 76 | 1014.1 |
| 20260905015555 | 27 | 0 | 0.0 | 0.0 | 0.00 | 0.00 | 0.00 | 77 | 1014.1 |
| 20260905015044 | 27 | 0 | 0.0 | 0.0 | 0.00 | 0.00 | 0.00 | 79 | 1014.1 |
| 20260905014603 | 27 | 0 | 0.0 | 0.0 | 0.00 | 0.00 | 0.00 | 79 | 1014.1 |
| 20260905014042 | 27 | 0 | 0.0 | 0.0 | 0.00 | 0.00 | 0.00 | 79 | 1014.1 |
| 20260905013544 | 27 | 0 | 0.0 | 0.0 | 0.00 | 0.00 | 0.00 | 78 | 1014.0 |
| 20260905013103 | 28 | 0 | 0.0 | 0.0 | 0.00 | 0.00 | 0.00 | 74 | 1014.0 |
| 20260905012544 | 28 | 0 | 0.0 | 0.0 | 0.00 | 0.00 | 0.00 | 73 | 1013.9 |
| 20260905012043 | 28 | 0 | 0.0 | 0.0 | 0.00 | 0.00 | 0.00 | 72 | 1013.9 |
| 20260905011600 | 28 | 0 | 0.0 | 0.0 | 0.00 | 0.00 | 0.00 | 73 | 1013.9 |
| 20260905011043 | 28 | 0 | 0.0 | 0.0 | 0.00 | 0.00 | 0.00 | 74 | 1013.9 |
| 20260905010544 | 28 | 0 | 0.0 | 0.0 | 0.00 | 0.00 | 0.00 | 74 | 1014.0 |
| 20260905010107 | 28 | 0 | 0.0 | 0.0 | 0.00 | 0.00 | 0.00 | 75 | 1013.8 |
| 20260905005544 | 28 | 0 | 0.0 | 0.0 | 0.00 | 0.00 | 0.00 | 75 | 1013.9 |
| 20260905005043 | 28 | 0 | 0.0 | 1.6 | 0.00 | 0.00 | 0.00 | 77 | 1013.8 |
| 20260905004606 | 28 | 0 | 0.0 | 1.6 | 0.00 | 0.00 | 0.00 | 80 | 1013.8 |